Tracking 35331 objects as of 14-Sep-2026
HD Live streaming from Space Station
objects crossing your sky now

STARLINK-35619

Track STARLINK-35619 now!
10-day predictions
STARLINK-35619 is classified as:


NORAD ID: 66256
Int'l Code: 2025-245Y
Launch date: October 29, 2025
Source: United States (US)
Launch site: AIR FORCE EASTERN TEST RANGE (AFETR)
Your satellite tracking list
Your tracking list is empty




NASA's NSSDC Master Catalog

Two Line Element Set (TLE):
1 66256U 25245Y   26256.90706050  .00019033  00000-0  57304-3 0  9999
2 66256  53.1601 128.2098 0000993  70.5754 289.5355 15.34397621 50094
Source of the keplerian elements: AFSPC